Terminal Aerodrome Forecast
Issued by NWS Tallahassee, FL

Home | Current Version | Previous Version | Text Only | Print | Product List | Glossary On
Versions: 1 2 3 4 5 6 7 8 9 10 11 12 13 14
684
FTUS42 KTAE 081122
TAFTLH
TAF
KTLH 081122Z 0812/0912 26008KT P6SM SKC
     FM081600 26015G25KT P6SM BKN050
     FM090000 29010G16KT P6SM SCT050=

USA.gov is the U.S. government's official web portal to all federal, state and local government web resources and services.